Weather in Iqaluit

Canada     63°45′05″N   68°31′23″W
temp.,
°C
wind,
m/s
gust,
m/s
humid.,
%
clouds,
%
prec.,
mm/h
press.,
hPa
HPBL,
m
14 april, wed
wed1423:00−13nw8128575 0.0 1028173
02:00−17nw8138712 0.0 1030205
05:00−21nw812895 0.0 1033184
08:00−22nw611899 0.0 1035281
11:00−20nw812813 0.0 1035356
14:00−19nw811760 0.0 1035436
17:00−18nw611803 0.0 1035425
20:00−23nw46894 0.0 103653
15 april, thu
thu1523:00−26nnw459310 0.0 103656
02:00−27nnw479514 0.0 103675
05:00−27nnw459415 0.0 103554
08:00−24nnw47937 0.0 1035143
11:00−20nw468747 0.0 1033224
14:00−17nnw4678100 0.0 1031294
17:00−16nnw467987 0.0 1030216
20:00−18n338493 0.0 102925
16 april, fri
fri1623:00−22n338951 0.0 102814
02:00−24n229648 0.0 10279
05:00−25n229792 0.0 102613
08:00−21nnw239479 0.0 102576
11:00−17nnw348937 0.0 1023213
14:00−14nnw348449 0.0 1021303
17:00−13w128951 0.0 102069
20:00−20nnw1110043 0.0 10209
17 april, sat
sat1723:00−23n2210027 0.0 10209
02:00−24n229952 0.0 10199
05:00−25n229853 0.0 101910
08:00−21nnw229420 0.0 101855
11:00−15nnw228317 0.0 1017165
14:00−13nnw117914 0.0 1017213
17:00−13n11848 0.0 101634
20:00−19nne11925 0.0 10179
18 april, sun
sun1823:00−22n22946 0.0 10179
02:00−24n229310 0.0 10169
05:00−25n11938 0.0 10169
08:00−21ene119232 0.0 101642
11:00−17sse118729 0.0 1016152
14:00−14sse238884 0.0 1016273
17:00−14sse119034 0.0 1017111
20:00−19n119963 0.0 10179